Location: Newark
(34.9500°N, 139.9667°E)
Time: 20:14:51
(UTC+00:00)

Vanguard 2 Rocket - Pass Details

Date: 09 December 2019
Orbit: 554 x 3326 km, 32.9° (Epoch: 21 January)

Event Time Altitude Azimuth Distance (km) Brightness Sun altitude
Rises 06:05:22 0° 211° (SSW) 7,236 13.0 13.3°
Reaches altitude 10° 06:11:32 10° 202° (SSW) 6,016 12.4 12.3°
Maximum altitude 06:25:31 29° 151° (SSE) 3,770 10.2 10.1°
Drops below altitude 10° 06:35:17 10° 97° (E) 4,183 9.9 8.5°
Sets 06:38:35 0° 86° (E) 4,804 10.1 7.9°
